BSAT-4A

导读 | 豆包AI

BSAT-4A是由日本放送卫星公司(BSAT)定制的广播卫星,于2017年9月29日发射入轨,定位于东经110度地球静止轨道。卫星由空间系统/Loral制造,基于SSL 1300平台,装载24台Ku波段转发器,主要为日本提供高清和4K超高清广播电视服务,设计寿命15年,截至2026年仍在轨正常运行。

基本信息
目录编号:
42951
目录名称:
BSAT-4A
国际标识:
2017-059B
轨道中心:
EARTH
卫星名称:
BSAT-4A
卫星全名:
--
卫星状态:
在轨 (已飞行3136 天)
发射日期:
2017-09-29 UTC
国别 :
日本 (JP)
星等 :
--
轨道信息
数据来源 国际轨道数据 AOE轨道数据
星历时间 2026-04-30T16:47:04+0800
22小时前
查看轨道信息
2026-05-01T05:00:00+0800
10小时前
查看轨道信息
半长轴 42164.616km 42164.644km
偏心率 0.0004692 0.0004699
轨道倾角 0.082° 0.081°
近地点辐角 347.610° 347.625°
升交点赤经 60.285° 60.364°
平近点角 52.024° 235.668°
近地点 35766.695km 35766.693km
远地点 35806.263km 35806.321km
周期 1436.091分钟 1436.092分钟
每日圈数 1.002722 1.002721
详细信息
使用方式:
暂无
2D轨道图
3D轨道图
轨道高度分析图
轨道倾角分析图
轨道综合分析图
查看轨道综合分析图